ARA127 DNSO-DNMM

Flight info

Callsign ARA127
Flight time N/A
Altitude 36000
Route SOK UB731 BUDSI BUDSI1N
Aircraft B737/M-SDE2E3FGHIRWXY/LB1

Departure

Time 2026-05-07 09:47
Airport Sadiq Abubakar III International Airport (DNSO)

Arrival

Time N/A
Airport Murtala Muhammed International Airport (DNMM)
Time Latitude Longitude Altitude Speed Heading
2026-05-07 09:34 12.91774 5.20059 1015 ft 0 kts 343°
2026-05-07 09:38 12.91764 5.20062 1012 ft 2 kts 348°
2026-05-07 09:39 12.91748 5.20065 1010 ft 2 kts 353°
2026-05-07 09:39 12.91732 5.20067 1012 ft 2 kts
2026-05-07 09:39 12.91715 5.20065 1012 ft 2 kts 15°
2026-05-07 09:39 12.91700 5.20059 1012 ft 2 kts 34°
2026-05-07 09:40 12.91688 5.20047 1012 ft 2 kts 55°
2026-05-07 09:40 12.91680 5.20032 1012 ft 2 kts 71°
2026-05-07 09:40 12.91677 5.20024 1012 ft 1 kts 77°
2026-05-07 09:40 12.91677 5.20023 1012 ft 0 kts 77°
2026-05-07 09:41 12.91678 5.20028 1012 ft 2 kts 77°
2026-05-07 09:42 12.91686 5.20061 1012 ft 7 kts 77°
2026-05-07 09:42 12.91685 5.20122 1012 ft 10 kts 117°
2026-05-07 09:42 12.91617 5.20158 1012 ft 13 kts 166°
2026-05-07 09:42 12.91523 5.20183 1012 ft 15 kts 154°
2026-05-07 09:43 12.91496 5.20287 1012 ft 18 kts 76°
2026-05-07 09:43 12.91530 5.20423 1012 ft 21 kts 76°
2026-05-07 09:43 12.91565 5.20579 1013 ft 23 kts 78°
2026-05-07 09:43 12.91605 5.20751 1014 ft 26 kts 77°
2026-05-07 09:44 12.91649 5.20942 1014 ft 29 kts 77°
2026-05-07 09:44 12.91697 5.21146 1015 ft 31 kts 76°
2026-05-07 09:44 12.91746 5.21363 1015 ft 33 kts 76°
2026-05-07 09:44 12.91801 5.21599 1015 ft 35 kts 77°
2026-05-07 09:45 12.91856 5.21842 1018 ft 34 kts 76°
2026-05-07 09:45 12.91929 5.22013 1019 ft 18 kts 89°
2026-05-07 09:45 12.91862 5.22044 1018 ft 5 kts 214°
2026-05-07 09:45 12.91867 5.22015 1018 ft 5 kts 300°
2026-05-07 09:46 12.91881 5.21986 1019 ft 5 kts 289°
2026-05-07 09:46 12.91882 5.21950 1018 ft 6 kts 259°
2026-05-07 09:46 12.91862 5.21868 1018 ft 30 kts 257°
2026-05-07 09:46 12.91735 5.21323 1015 ft 125 kts 257°
2026-05-07 09:47 12.91481 5.20260 1490 ft 167 kts 255°
2026-05-07 09:47 12.91213 5.19032 2441 ft 182 kts 253°
2026-05-07 09:47 12.90716 5.17902 3750 ft 177 kts 228°
2026-05-07 09:47 12.89611 5.17164 4378 ft 202 kts 205°
2026-05-07 09:48 12.88262 5.16647 4910 ft 214 kts 203°
2026-05-07 09:48 12.86805 5.16065 5258 ft 234 kts 205°
2026-05-07 09:48 12.85245 5.15380 5634 ft 254 kts 206°
2026-05-07 09:48 12.83572 5.14608 5838 ft 280 kts 206°
2026-05-07 09:49 12.81719 5.13744 6419 ft 295 kts 205°
2026-05-07 09:49 12.79855 5.12872 7211 ft 301 kts 204°
2026-05-07 09:49 12.77954 5.11982 8200 ft 299 kts 203°
2026-05-07 09:49 12.76065 5.11097 9176 ft 300 kts 202°
2026-05-07 09:50 12.74153 5.10201 10049 ft 304 kts 201°
2026-05-07 09:50 12.72171 5.09274 10486 ft 326 kts 201°
2026-05-07 09:50 12.70055 5.08284 10987 ft 340 kts 201°
2026-05-07 09:50 12.67888 5.07267 11800 ft 344 kts 202°
2026-05-07 09:51 12.65717 5.06246 12726 ft 345 kts 201°
2026-05-07 09:51 12.63525 5.05216 13563 ft 349 kts 201°
2026-05-07 09:51 12.61301 5.04171 14340 ft 353 kts 201°
2026-05-07 09:51 12.59060 5.03119 15113 ft 357 kts 202°
2026-05-07 09:52 12.56792 5.02053 15932 ft 360 kts 202°
2026-05-07 09:52 12.54506 5.00980 16701 ft 363 kts 202°
2026-05-07 09:52 12.52194 4.99895 17444 ft 368 kts 202°
2026-05-07 09:52 12.49853 4.98796 18175 ft 372 kts 202°
2026-05-07 09:53 12.47489 4.97688 18819 ft 375 kts 202°
2026-05-07 09:53 12.45104 4.96569 19465 ft 379 kts 202°
2026-05-07 09:53 12.42697 4.95440 20081 ft 383 kts 202°
2026-05-07 09:53 12.40262 4.94298 20712 ft 386 kts 203°
2026-05-07 09:54 12.37807 4.93147 21343 ft 390 kts 203°
2026-05-07 09:54 12.35328 4.91985 21944 ft 394 kts 203°
2026-05-07 09:54 12.32820 4.90811 22502 ft 399 kts 203°
2026-05-07 09:54 12.30283 4.89622 23069 ft 403 kts 203°
2026-05-07 09:55 12.27759 4.88439 23608 ft 406 kts 203°
2026-05-07 09:55 12.25178 4.87230 24099 ft 409 kts 203°
2026-05-07 09:55 12.22582 4.86016 24600 ft 412 kts 203°
2026-05-07 09:55 12.19970 4.84793 25077 ft 414 kts 203°
2026-05-07 09:56 12.17340 4.83561 25566 ft 417 kts 204°
2026-05-07 09:56 12.14693 4.82323 26031 ft 420 kts 204°
2026-05-07 09:56 12.12031 4.81078 26501 ft 423 kts 204°
2026-05-07 09:56 12.09346 4.79823 26981 ft 425 kts 204°
2026-05-07 09:57 12.06654 4.78564 27457 ft 427 kts 204°
2026-05-07 09:57 12.03938 4.77295 27923 ft 430 kts 204°
2026-05-07 09:57 12.01213 4.76021 28373 ft 432 kts 204°
2026-05-07 09:57 11.98468 4.74739 28811 ft 435 kts 204°
2026-05-07 09:58 11.95706 4.73448 29231 ft 438 kts 204°
2026-05-07 09:58 11.92925 4.72150 29651 ft 441 kts 204°
2026-05-07 09:58 11.90131 4.70845 30044 ft 443 kts 204°
2026-05-07 09:58 11.87319 4.69532 30371 ft 446 kts 205°
2026-05-07 09:59 11.84491 4.68212 30762 ft 447 kts 205°
2026-05-07 09:59 11.81672 4.66898 31256 ft 444 kts 205°
2026-05-07 09:59 11.78862 4.65586 31771 ft 443 kts 205°
2026-05-07 09:59 11.76059 4.64279 32215 ft 443 kts 205°
2026-05-07 10:00 11.73255 4.62972 32662 ft 444 kts 205°
2026-05-07 10:00 11.70448 4.61663 33136 ft 443 kts 205°
2026-05-07 10:00 11.67649 4.60359 33611 ft 442 kts 205°
2026-05-07 10:00 11.64854 4.59056 34030 ft 442 kts 205°
2026-05-07 10:01 11.62100 4.57773 34448 ft 440 kts 205°
2026-05-07 10:01 11.59294 4.56464 34926 ft 436 kts 206°
2026-05-07 10:01 11.56599 4.55159 35356 ft 433 kts 206°
2026-05-07 10:01 11.53889 4.53808 35742 ft 432 kts 207°
2026-05-07 10:02 11.51186 4.52446 35903 ft 435 kts 207°
2026-05-07 10:02 11.45737 4.49703 35905 ft 436 kts 207°
2026-05-07 10:03 11.40341 4.47003 35898 ft 430 kts 207°
2026-05-07 10:03 11.34956 4.44319 35913 ft 431 kts 206°
2026-05-07 10:04 11.29556 4.41629 35909 ft 433 kts 206°
2026-05-07 10:04 11.24134 4.38931 35910 ft 434 kts 206°
2026-05-07 10:05 11.18739 4.36248 35907 ft 435 kts 206°
2026-05-07 10:05 11.13313 4.33550 35905 ft 434 kts 206°
2026-05-07 10:06 11.07895 4.30856 35905 ft 432 kts 206°
2026-05-07 10:06 11.02496 4.28173 35905 ft 430 kts 206°
2026-05-07 10:07 10.97126 4.25505 35907 ft 429 kts 206°
2026-05-07 10:07 10.91775 4.22848 35907 ft 427 kts 206°
2026-05-07 10:08 10.86437 4.20199 35907 ft 426 kts 206°
2026-05-07 10:08 10.81139 4.17570 35913 ft 426 kts 206°
2026-05-07 10:09 10.75803 4.14923 35909 ft 427 kts 206°
2026-05-07 10:09 10.70455 4.12271 35915 ft 428 kts 206°
2026-05-07 10:10 10.65104 4.09609 35913 ft 429 kts 206°
2026-05-07 10:10 10.59748 4.06924 35917 ft 429 kts 206°
2026-05-07 10:11 10.54387 4.04236 35918 ft 430 kts 206°
2026-05-07 10:11 10.49019 4.01547 35917 ft 430 kts 206°
2026-05-07 10:12 10.43654 3.98861 35923 ft 430 kts 206°
2026-05-07 10:12 10.38288 3.96176 35923 ft 430 kts 206°
2026-05-07 10:13 10.32929 3.93496 35924 ft 430 kts 207°
2026-05-07 10:13 10.27566 3.90815 35924 ft 430 kts 207°
2026-05-07 10:14 10.22202 3.88134 35924 ft 430 kts 207°
2026-05-07 10:14 10.16837 3.85454 35924 ft 430 kts 207°
2026-05-07 10:15 10.11509 3.82794 35923 ft 430 kts 207°
2026-05-07 10:15 10.06147 3.80117 35924 ft 430 kts 207°
2026-05-07 10:16 10.02560 3.78327 35924 ft 430 kts 207°